TimeCDT,TemperatureF,Dew PointF,Humidity,Sea Level PressureIn,VisibilityMPH,Wind Direction,Wind SpeedMPH,Gust SpeedMPH,PrecipitationIn,Events,Conditions,WindDirDegrees,DateUTC
12:15 AM,75.4,68.5,79,29.81,7.0,SSE,13.8,21.9,N/A,,Clear,160,2013-05-20 05:15:00
12:35 AM,74.8,68.9,82,29.82,7.0,South,13.8,19.6,N/A,,Clear,170,2013-05-20 05:35:00
12:55 AM,74.3,68.9,83,29.81,7.0,South,13.8,19.6,N/A,,Clear,170,2013-05-20 05:55:00
1:15 AM,73.6,68.9,85,29.81,7.0,South,11.5,-,N/A,,Clear,180,2013-05-20 06:15:00
1:35 AM,73.4,68.9,86,29.80,7.0,South,9.2,16.1,N/A,,Clear,170,2013-05-20 06:35:00
1:55 AM,72.9,68.5,86,29.81,7.0,South,10.4,-,N/A,,Clear,170,2013-05-20 06:55:00
2:15 AM,72.9,68.0,85,29.80,7.0,South,13.8,18.4,N/A,,Clear,180,2013-05-20 07:15:00
2:35 AM,73.4,67.1,81,29.79,10.0,South,12.7,-,N/A,,Clear,180,2013-05-20 07:35:00
2:55 AM,73.4,66.4,79,29.78,10.0,South,13.8,-,N/A,,Clear,170,2013-05-20 07:55:00
3:15 AM,73.0,66.2,79,29.77,10.0,South,11.5,17.3,N/A,,Clear,170,2013-05-20 08:15:00
3:35 AM,72.5,66.2,81,29.78,10.0,South,10.4,-,N/A,,Clear,170,2013-05-20 08:35:00
3:55 AM,72.1,66.2,82,29.79,10.0,South,12.7,-,N/A,,Clear,190,2013-05-20 08:55:00
4:35 AM,71.6,66.2,83,29.80,10.0,South,12.7,-,N/A,,Mostly Cloudy,190,2013-05-20 09:35:00
4:55 AM,72.0,66.2,82,29.81,10.0,South,12.7,-,N/A,,Mostly Cloudy,190,2013-05-20 09:55:00
5:15 AM,71.6,66.2,83,29.81,10.0,South,12.7,18.4,N/A,,Mostly Cloudy,190,2013-05-20 10:15:00
5:35 AM,71.1,66.2,85,29.81,10.0,South,12.7,-,N/A,,Clear,190,2013-05-20 10:35:00
5:55 AM,71.6,66.2,83,29.83,10.0,SSW,13.8,19.6,N/A,,Clear,200,2013-05-20 10:55:00
6:15 AM,71.8,66.2,83,29.83,10.0,SSW,13.8,-,N/A,,Clear,200,2013-05-20 11:15:00
6:35 AM,72.0,66.4,83,29.84,10.0,SSW,17.3,21.9,N/A,,Clear,210,2013-05-20 11:35:00
6:55 AM,71.6,66.2,83,29.85,10.0,SW,15.0,18.4,N/A,,Scattered Clouds,220,2013-05-20 11:55:00
7:15 AM,71.1,61.7,72,29.86,10.0,WSW,19.6,26.5,N/A,,Scattered Clouds,240,2013-05-20 12:15:00
7:35 AM,72.5,60.6,66,29.86,10.0,WSW,12.7,-,N/A,,Clear,240,2013-05-20 12:35:00
7:55 AM,73.6,59.5,61,29.84,10.0,WSW,8.1,-,N/A,,Clear,240,2013-05-20 12:55:00
8:15 AM,72.7,58.8,62,29.82,10.0,Calm,Calm,-,N/A,,Clear,0,2013-05-20 13:15:00
8:35 AM,72.7,59.9,64,29.83,10.0,South,4.6,-,N/A,,Clear,190,2013-05-20 13:35:00
8:55 AM,72.9,59.2,62,29.83,10.0,SSE,6.9,-,N/A,,Clear,150,2013-05-20 13:55:00
9:15 AM,73.4,58.8,60,29.84,10.0,SSE,9.2,-,N/A,,Clear,160,2013-05-20 14:15:00
9:35 AM,73.8,59.0,60,29.85,10.0,SSE,10.4,-,N/A,,Scattered Clouds,160,2013-05-20 14:35:00
9:55 AM,74.5,59.2,59,29.83,10.0,SSE,11.5,17.3,N/A,,Scattered Clouds,150,2013-05-20 14:55:00
10:15 AM,75.2,59.0,57,29.80,10.0,SSE,11.5,18.4,N/A,,Scattered Clouds,160,2013-05-20 15:15:00
10:35 AM,75.2,59.2,57,29.82,10.0,SSE,12.7,-,N/A,,Clear,160,2013-05-20 15:35:00
10:55 AM,77.7,60.1,54,29.82,10.0,SSE,11.5,19.6,N/A,,Clear,160,2013-05-20 15:55:00
11:15 AM,78.8,58.8,50,29.81,10.0,South,23.0,26.5,N/A,,Clear,190,2013-05-20 16:15:00
11:35 AM,79.3,58.6,49,29.79,10.0,South,19.6,24.2,N/A,,Clear,170,2013-05-20 16:35:00
11:55 AM,81.5,58.6,46,29.79,10.0,South,20.7,26.5,N/A,,Clear,180,2013-05-20 16:55:00
12:15 PM,82.4,58.1,43,29.80,10.0,South,21.9,31.1,N/A,,Clear,190,2013-05-20 17:15:00
12:35 PM,84.2,58.6,42,29.81,10.0,South,21.9,28.8,N/A,,Clear,180,2013-05-20 17:35:00
12:55 PM,85.1,58.3,40,29.81,10.0,SSW,23.0,35.7,N/A,,Clear,210,2013-05-20 17:55:00
1:15 PM,86.9,58.5,38,29.82,10.0,SSW,25.3,33.4,N/A,,Scattered Clouds,200,2013-05-20 18:15:00
1:55 PM,87.6,58.1,37,29.81,10.0,SSW,19.6,28.8,N/A,,Scattered Clouds,200,2013-05-20 18:55:00
2:15 PM,86.0,57.9,38,29.82,10.0,SSW,21.9,32.2,N/A,,Scattered Clouds,200,2013-05-20 19:15:00
2:35 PM,88.2,57.0,35,29.82,10.0,SW,21.9,35.7,N/A,,Scattered Clouds,220,2013-05-20 19:35:00
2:55 PM,87.6,57.7,36,29.82,10.0,SW,23.0,33.4,N/A,,Mostly Cloudy,220,2013-05-20 19:55:00
3:15 PM,85.8,56.1,36,29.82,10.0,SSW,20.7,33.4,N/A,,Mostly Cloudy,210,2013-05-20 20:15:00
3:35 PM,86.9,58.3,38,29.81,10.0,SSW,21.9,28.8,N/A,,Mostly Cloudy,210,2013-05-20 20:35:00
3:55 PM,88.5,57.0,34,29.80,10.0,SW,19.6,28.8,N/A,,Scattered Clouds,220,2013-05-20 20:55:00
4:15 PM,88.3,55.6,33,29.78,10.0,SW,19.6,28.8,N/A,,Scattered Clouds,220,2013-05-20 21:15:00
4:35 PM,87.6,57.4,36,29.77,10.0,South,19.6,28.8,N/A,,Scattered Clouds,190,2013-05-20 21:35:00
4:55 PM,87.3,57.0,36,29.77,10.0,SSW,18.4,24.2,N/A,,Clear,200,2013-05-20 21:55:00
5:15 PM,86.4,57.4,37,29.77,10.0,SW,18.4,23.0,N/A,,Clear,220,2013-05-20 22:15:00
5:35 PM,86.7,58.6,38,29.76,10.0,SW,16.1,21.9,N/A,,Clear,220,2013-05-20 22:35:00
5:55 PM,86.0,57.9,38,29.75,10.0,South,13.8,18.4,N/A,,Clear,190,2013-05-20 22:55:00
6:15 PM,85.6,57.6,38,29.76,10.0,South,17.3,24.2,N/A,,Clear,190,2013-05-20 23:15:00
6:35 PM,84.9,58.8,41,29.75,10.0,South,15.0,-,N/A,,Scattered Clouds,180,2013-05-20 23:35:00
6:55 PM,83.8,61.3,47,29.75,10.0,South,13.8,19.6,N/A,,Clear,180,2013-05-20 23:55:00
7:15 PM,82.2,64.9,56,29.75,10.0,South,16.1,28.8,N/A,,Scattered Clouds,190,2013-05-21 00:15:00
7:35 PM,80.8,65.1,59,29.76,10.0,South,13.8,27.6,N/A,,Scattered Clouds,190,2013-05-21 00:35:00
7:55 PM,79.3,65.7,63,29.75,10.0,South,19.6,27.6,N/A,,Mostly Cloudy,180,2013-05-21 00:55:00
8:15 PM,77.5,64.4,64,29.75,10.0,South,13.8,-,N/A,,Scattered Clouds,180,2013-05-21 01:15:00
8:35 PM,77.0,64.6,65,29.76,10.0,South,13.8,17.3,N/A,,Mostly Cloudy,180,2013-05-21 01:35:00
8:55 PM,76.6,65.1,67,29.77,10.0,South,9.2,-,N/A,,Mostly Cloudy,170,2013-05-21 01:55:00
9:15 PM,76.6,65.8,69,29.76,10.0,South,9.2,-,N/A,,Overcast,170,2013-05-21 02:15:00
9:35 PM,76.1,65.8,70,29.77,10.0,South,9.2,-,N/A,,Overcast,170,2013-05-21 02:35:00
9:55 PM,75.7,65.7,71,29.77,10.0,SSE,9.2,-,N/A,,Overcast,160,2013-05-21 02:55:00
10:15 PM,75.4,65.7,72,29.75,10.0,SSE,10.4,-,N/A,,Scattered Clouds,160,2013-05-21 03:15:00
10:35 PM,75.4,65.7,72,29.74,10.0,SSE,10.4,-,N/A,,Scattered Clouds,160,2013-05-21 03:35:00
10:55 PM,75.4,65.5,71,29.75,10.0,SSE,11.5,-,N/A,,Mostly Cloudy,160,2013-05-21 03:55:00
11:15 PM,72.3,62.8,72,29.80,10.0,WSW,24.2,42.6,N/A,Thunderstorm,Overcast,250,2013-05-21 04:15:00
11:35 PM,64.2,62.4,94,29.80,3.0,West,12.7,20.7,0.09,Rain-Thunderstorm,Heavy Thunderstorms and Rain,280,2013-05-21 04:35:00
11:55 PM,63.0,61.7,96,29.81,2.5,West,9.2,-,0.22,Rain-Thunderstorm,Heavy Thunderstorms and Rain,280,2013-05-21 04:55:00